Kremmling, CO

7:11 PM MST on November 21, 2017 (GMT -0700)
Kremmling

Weather History for K20V - November, 2012

Change the Weather History Date:

Saturday, November 24, 2012

  Actual Average Record
Temperature  
Mean Temperature 31 °F -  
Max Temperature 51 °F - 51 °F (2006)
Min Temperature 14 °F - -9 °F (2007)
Degree Days  
Heating Degree Days 34    
Month to date heating degree days  
Cooling Degree Days 0    
Month to date cooling degree days  
Moisture  
Dew Point 12 °F    
Average Humidity 68    
Maximum Humidity 86    
Minimum Humidity 19    
Precipitation  
Precipitation 0.00 in - 0.00 in (2017)
Sea Level Pressure  
Sea Level Pressure 30.38 in    
Wind  
Wind Speed 0 mph (SE)    
Max Wind Speed 15 mph    
Max Gust Speed 20 mph    
T = Trace of Precipitation, MM = Missing Value Source: NWS Daily Summary

Daily Weather History Graph

Daily Weather History Graph

Search for Another Location

Airport or City:

Trip Planner

Search our weather history database for the weather conditions in past years. The results will help you decide how hot, cold, wet, or windy it might be!

Date:

Astronomy

Nov. 24, 2012 Rise Set
Actual Time 7:01 AM MST 4:42 PM MST
Civil Twilight 6:31 AM MST 5:12 PM MST
Nautical Twilight 5:58 AM MST 5:45 PM MST
Astronomical Twilight 5:26 AM MST 6:18 PM MST
Moon 2:29 PM MST (11/24) 3:21 AM MST (11/24)
Length of Visible Light 10h 40m
Length of Day
9h 41m
Waxing Gibbous, 87% of the Moon is Illuminated
Nov 24
Waxing Gibbous
Nov 28
Full
Dec 6
Last Quarter
Dec 13
New
Dec 19
First Quarter

Hourly Weather History & Observations

Time (MST) Temp. Windchill Dew Point Humidity Pressure Visibility Wind Dir Wind Speed Gust Speed Precip Events Conditions
12:15 AM 17.6 °F - 12.2 °F 79% 30.45 in - Calm Calm - N/A   Clear
12:35 AM 19.4 °F - 12.2 °F 74% 30.44 in - Calm Calm - N/A   Clear
12:55 AM 17.6 °F - 12.2 °F 79% 30.44 in - Calm Calm - N/A   Clear
1:15 AM 17.6 °F - 12.2 °F 79% 30.44 in - Calm Calm - N/A   Clear
1:35 AM 17.6 °F - 10.4 °F 73% 30.44 in - Calm Calm - N/A   Clear
1:55 AM 17.6 °F - 10.4 °F 73% 30.44 in - Calm Calm - N/A   Clear
2:15 AM 17.6 °F - 12.2 °F 79% 30.44 in - Calm Calm - N/A   Clear
2:35 AM 17.6 °F - 12.2 °F 79% 30.43 in - Calm Calm - N/A   Clear
2:55 AM 17.6 °F - 10.4 °F 73% 30.43 in - Calm Calm - N/A   Clear
3:15 AM 17.6 °F - 12.2 °F 79% 30.42 in - Calm Calm - N/A   Clear
3:35 AM 17.6 °F - 10.4 °F 73% 30.41 in - Calm Calm - N/A   Clear
3:55 AM 15.8 °F - 10.4 °F 79% 30.41 in - Calm Calm - N/A   Clear
4:15 AM 17.6 °F - 12.2 °F 79% 30.40 in - Calm Calm - N/A   Clear
4:35 AM 17.6 °F - 12.2 °F 79% 30.40 in - Calm Calm - N/A   Clear
4:55 AM 17.6 °F - 12.2 °F 79% 30.40 in - Calm Calm - N/A   Clear
5:15 AM 14.0 °F - 10.4 °F 86% 30.40 in - Calm Calm - N/A   Clear
5:35 AM 17.6 °F - 10.4 °F 73% 30.40 in - Calm Calm - N/A   Clear
5:55 AM 14.0 °F - 8.6 °F 79% 30.40 in - Calm Calm - N/A   Clear
6:15 AM 15.8 °F - 10.4 °F 79% 30.39 in - Calm Calm - N/A   Clear
6:35 AM 14.0 °F - 10.4 °F 86% 30.39 in - Calm Calm - N/A   Clear
6:54 AM 14.0 °F - 10.4 °F 86% 30.39 in - Calm Calm - N/A   Clear
7:14 AM 14.0 °F - 10.4 °F 86% 30.40 in - Calm Calm - N/A   Clear
7:35 AM 14.0 °F - 10.4 °F 86% 30.39 in - Calm Calm - N/A   Unknown
7:55 AM 14.0 °F - 10.4 °F 86% 30.39 in - Calm Calm - N/A   Unknown
8:15 AM 17.6 °F - 12.2 °F 79% 30.39 in - Calm Calm - N/A   Clear
8:35 AM 19.4 °F - 12.2 °F 74% 30.39 in - Calm Calm - N/A   Clear
8:55 AM 21.2 °F - 14.0 °F 74% 30.38 in - Calm Calm - N/A   Clear
9:15 AM 23.0 °F - 14.0 °F 68% 30.38 in - Calm Calm - N/A   Clear
9:35 AM 26.6 °F - 14.0 °F 59% 30.37 in - Calm Calm - N/A   Clear
9:55 AM 30.2 °F - 17.6 °F 60% 30.36 in - Calm Calm - N/A   Clear
10:15 AM 30.2 °F - 14.0 °F 51% 30.35 in - Calm Calm - N/A   Clear
10:35 AM 32.0 °F - 14.0 °F 48% 30.34 in - Calm Calm - N/A   Clear
10:55 AM 33.8 °F - 14.0 °F 44% 30.32 in - Calm Calm - N/A   Clear
11:15 AM 35.6 °F - 14.0 °F 41% 30.29 in - Calm Calm - N/A   Clear
11:35 AM 37.4 °F 34.9 °F 14.0 °F 38% 30.27 in - South 3.5 mph - N/A   Clear
11:54 AM 42.8 °F 40.1 °F 12.2 °F 29% 30.25 in - East 4.6 mph - N/A   Clear
12:15 PM 46.4 °F 45.2 °F 12.2 °F 25% 30.24 in - East 3.5 mph - N/A   Clear
12:35 PM 48.2 °F - 12.2 °F 24% 30.22 in - Calm Calm - N/A   Clear
12:49 PM 51.8 °F - 10.4 °F 19% 30.20 in - WSW 15.0 mph 19.6 mph N/A   Clear